Location: Sevilla
(37.3933°N, 5.9839°W)
Time: 02:50:51
(UTC+02:00)

Vanguard 3 - Pass Details

Date: 25 June 2024
Orbit: 508 x 3230 km, 33.3° (Epoch: 24 July)

Event Time Altitude Azimuth Distance (km) Brightness Sun altitude
Rises 07:34:46 0° 208° (SSW) 7,062 11.4 4.4°
Reaches altitude 10° 07:41:04 10° 197° (SSW) 5,796 11.1 5.5°
Maximum altitude 07:53:25 26° 151° (SSE) 3,815 10.7 7.8°
Drops below altitude 10° 08:02:16 10° 101° (E) 4,082 11.8 9.4°
Sets 08:05:41 0° 88° (E) 4,685 12.6 10.0°
